2018-102K (43840 NORAD) Tracking and Keplerian Element Data

This shows tracking and keplerian element data for the satellite.

Feedback or suggestion? Click here.




ElementValue
Catalog43840
Name2018-102K
Epoch Orbit451
Epoch Day6.14111205
Epoch Year2019
RAAN83.3981
Inclination97.622
Eccentricity0.0016995
Argument of Perigee176.9333
Mean Anonmoly267.4044
Mean Motion15.09005228
Decay Rate9.1E-06
L11 43840U 18102K 19006.14111205 .00000910 00000-0 61500-4 0 9998
L22 43840 97.6220 83.3981 0016995 176.9333 267.4044 15.09005228 4510

Live tracking and technical data element details for 2018-102K (NORAD 43840). 2018-102K can be tracked NOW for your location showing map with azimuth and elevation plus other details from your city location.

Track the satellite on the map from your city or location and see movement details for azimuth, elevation, latitude, longitude, range, height, and movement on the map or in text.







IsCatalogInMostPopularTable: catalog: 43840, numindb: 37
Update: records affected: 1



GetName: 43840 2018-102K

Hit Count: updated at: Wed, 23 Jan 2019 03:10:45 GMT